[[[{"header":{"parameterUnit":"kt","parameterCategory":2,"dx":1,"dy":1,"la1":30.253999710083008,"la2":30.299108505249023,"lo1":-89.0895004272461,"lo2":-89.04439544677734,"nx":28,"ny":28,"refTime":"2022-10-19T09:00:00:Z","depth":0,"parameterNumber":1,"parameterNumberName":"U-component_of_WINDS"},"data":[5.0947,5.1029,5.1022,5.1112,5.1121,5.118,5.1198,5.1222,5.1239,5.1308,5.1346,5.1348,5.1362,5.1405,5.1445,5.1445,5.146,5.1492,5.1485,5.1349,5.133,5.1311,5.1289,5.1497,5.1498,5.1624,5.1625,5.1626,5.0839,5.0849,5.0896,5.0937,5.0976,5.094,5.0969,5.1003,5.1058,5.1081,5.112,5.1181,5.1228,5.1232,5.1276,5.1311,5.1295,5.1323,5.1317,5.1318,5.1175,5.1152,5.1334,5.1334,5.1334,5.1334,5.1334,5.1334,5.064,5.0691,5.0711,5.0763,5.0782,5.081,5.0857,5.0858,5.0904,5.0951,5.0936,5.0998,5.1019,5.1071,5.1087,5.1133,5.1102,5.1129,5.1135,5.114,5.1145,5.0951,5.1142,5.1141,5.1141,5.1141,5.114,0,5.049,5.048,5.0527,5.0571,5.0609,5.0643,5.0673,5.0702,5.0682,5.0722,5.0778,5.0809,5.087,5.092,5.0962,5.0973,5.0937,5.0937,5.0954,5.0957,5.0954,5.0949,5.0708,5.093,5.0928,5.0927,5.0926,5.0925,5.0282,5.0346,5.0367,5.04,5.0416,5.0471,5.0502,5.0481,5.0515,5.0549,5.0595,5.0648,5.0688,5.0779,5.078,5.0826,5.0808,5.0892,5.0815,5.0816,5.0801,5.0795,5.0798,5.0906,5.0908,5.091,5.0912,0,5.0163,5.0155,5.0252,5.0268,5.0274,5.0341,5.0353,5.0405,5.0403,5.0472,5.0487,5.0483,5.0539,5.0527,5.059,5.0581,5.0684,5.067,5.0674,5.0668,5.0736,5.0728,5.0976,5.1004,5.0796,5.0798,5.0799,0,4.998,5.0066,5.0046,5.0104,5.0197,5.0173,5.0266,5.0273,5.0293,5.0348,5.0309,5.0361,5.0339,5.0389,5.0377,5.046,5.0475,5.047,5.0465,5.047,5.047,5.0483,5.047,5.046,5.0459,5.0458,5.0457,0,4.9791,4.9886,4.9979,4.9999,5.0026,5.007,5.0084,5.0108,5.014,5.018,5.0199,5.025,5.0275,5.0313,5.0296,5.0243,5.04,5.0324,5.0395,5.0395,5.0427,5.0424,5.0651,5.0455,5.0455,5.0454,5.0454,0,4.9639,4.9683,4.9823,4.9842,4.9868,4.9932,4.9977,5.003,5.0058,5.0055,5.0087,5.0058,5.0136,5.0059,5.0163,5.0098,5.0124,5.013,5.0135,5.0135,5.0049,5.017,5.0395,5.0414,5.0142,5.0139,5.0137,0,4.9421,4.9563,4.9544,4.9679,4.9742,4.969,4.976,4.9788,4.979,4.9842,4.9843,4.9904,4.9846,4.9863,4.9917,4.992,5.0005,4.9909,4.9976,4.9979,4.9963,5.017,5.0203,5.0348,5.0104,5.0107,5.011,0,4.925,4.9286,4.9312,4.9332,4.9368,4.9423,4.9505,4.9561,4.9595,4.9635,4.9699,4.979,4.9746,4.9777,4.9759,4.9816,4.9947,4.9762,4.9763,4.979,5.0089,5.0118,5.0143,4.9922,4.9926,4.9929,5.0084,0,4.901,4.9083,4.9155,4.9207,4.9248,4.9336,4.9325,4.9369,4.9347,4.9347,4.9446,4.947,4.9527,4.9556,4.9537,4.9673,4.9646,4.9602,4.9523,4.9662,4.9712,4.9733,4.9449,4.9446,4.9444,4.9443,0,0,4.8799,4.8904,4.8883,4.8964,4.8996,4.8943,4.9036,4.9062,4.9118,4.914,4.9097,4.9226,4.9248,4.9369,4.9412,4.9439,4.9459,4.9413,4.9597,4.9615,4.9631,4.9685,4.9707,4.9439,4.9438,4.9438,4.9437,0,4.8708,4.8735,4.883,4.8856,4.8894,4.8891,4.8914,4.8942,4.8946,4.9048,4.9,4.9059,4.9167,4.9192,4.922,4.9399,4.9358,4.9419,4.9515,4.9578,4.9598,4.9616,4.9673,4.9694,4.9432,4.9433,4.9433,0,4.8532,4.8554,4.8601,4.8678,4.8703,4.8773,4.8687,4.8767,4.8817,4.8755,4.8855,4.8868,4.8904,4.9024,4.9077,4.9039,4.9266,4.9196,4.9208,4.9212,4.9273,4.9297,4.9318,4.9034,4.9033,4.9032,0,0,4.8455,4.8525,4.8542,4.8658,4.8677,4.8674,4.8712,4.8694,4.8729,4.8743,4.8758,4.8792,4.8853,4.8894,4.8952,4.9087,4.9089,4.9147,4.9166,4.9182,4.9194,4.9258,4.9282,4.9027,4.9026,4.9026,0,0,4.8417,4.8442,4.8414,4.8548,4.8583,4.8607,4.8677,4.8643,4.8695,4.8683,4.8657,4.8666,4.8778,4.8793,4.8725,4.8922,4.8845,4.8861,4.8908,4.8931,4.895,4.8941,4.8639,0,0,0,0,0,4.8319,4.8438,4.8413,4.8434,4.8534,4.8621,4.8634,4.8615,4.8559,4.8614,4.862,4.8577,4.8749,4.8689,4.8709,4.8784,4.896,4.8972,4.8983,4.9075,4.91,4.9121,0,0,0,0,0,0,4.8327,4.8353,4.841,4.844,4.8462,4.8617,4.8517,4.8515,4.8552,4.8542,4.8577,4.8578,4.8563,4.8677,4.8696,4.8767,4.8633,4.8965,4.8975,4.8984,4.9083,4.9104,4.9121,0,0,0,0,0,4.8333,4.8354,4.8519,4.8438,4.8457,4.8461,4.8513,4.851,4.8538,4.855,4.8549,4.8521,4.8566,4.858,4.8688,4.8759,4.862,4.8627,4.8971,4.8979,4.8986,4.9093,0,0,0,0,0,0,4.8338,4.8352,4.8522,4.8528,4.8392,4.8452,4.8461,4.8506,4.8543,4.8544,4.8492,4.8484,4.8569,4.858,4.8591,4.8757,4.8609,4.8616,4.8621,4.8977,4.8983,4.8989,0,0,0,0,0,0,4.834,4.8357,4.8525,4.8468,4.8466,4.8444,4.8452,4.8542,4.8544,4.8483,4.8477,4.8488,4.8552,4.858,4.8589,4.873,4.8601,4.8608,4.8612,4.8615,4.8982,4.8987,0,0,0,0,0,0,4.8347,4.8361,4.8467,4.8465,4.8464,4.8519,4.8523,4.8625,4.8496,4.8482,4.8484,4.8478,4.8553,4.8562,4.8587,4.8726,4.8729,4.8601,4.8606,4.8609,4.8611,0,0,0,0,0,0,0,4.8352,4.8264,4.8493,4.8463,4.8461,4.8574,4.8576,4.8577,4.8495,4.849,4.8485,4.8481,4.8561,4.8569,4.8577,4.8722,0,0,4.86,4.8604,0,0,0,0,0,0,0,0,4.8258,4.8263,4.8493,4.8494,4.8495,4.8575,4.8576,4.8577,4.8494,4.849,4.8486,4.8482,4.8563,4.8569,4.8576,0,0,0,0,0,0,0,0,0,0,0,0,0,0,0,4.8493,4.8494,0,4.8575,4.8576,4.8577,4.8493,4.849,4.8487,4.8484,4.8565,4.857,4.8575,0,0,0,0,0,0,0,0,0,0,0,0,0,0,0,0,0,0,0,0,0,0,0,0,0,0,0,0,0,0,0,0,0,0,0,0,0,0,0,0,0,0,0,0,0,0,0,0,0,0,0,0,0,0,0,0,0,0,0,0,0,0,0,0,0,0,0,0,0]}],[{"header":{"parameterUnit":"kt","parameterCategory":2,"dx":1,"dy":1,"la1":30.253999710083008,"la2":30.299108505249023,"lo1":-89.0895004272461,"lo2":-89.04439544677734,"nx":28,"ny":28,"refTime":"2022-10-19T09:00:00:Z","depth":0,"parameterNumber":2,"parameterNumberName":"V-component_of_WINDS"},"data":[5.1071,5.1137,5.1119,5.1185,5.1181,5.1223,5.1233,5.1243,5.1247,5.1295,5.132,5.1311,5.1308,5.1334,5.1359,5.1354,5.1365,5.1398,5.1386,5.1253,5.1233,5.1214,5.1196,5.1402,5.1402,5.1525,5.1526,5.1527,5.0965,5.0961,5.0993,5.1012,5.1038,5.0994,5.1007,5.1031,5.107,5.1078,5.1102,5.1144,5.1175,5.1163,5.119,5.1218,5.1199,5.1226,5.1222,5.1222,5.1079,5.106,5.1241,5.1241,5.1241,5.1241,5.1241,5.1241,5.0768,5.0809,5.0811,5.0845,5.0851,5.0864,5.09,5.0888,5.092,5.0947,5.0923,5.0968,5.0973,5.1,5.1005,5.1039,5.1006,5.1031,5.1036,5.1042,5.1049,5.0864,5.1044,5.1043,5.1043,5.1042,5.1042,0,5.0617,5.06,5.0631,5.0656,5.0681,5.07,5.0715,5.0737,5.0699,5.0727,5.0766,5.0786,5.0825,5.0859,5.0883,5.0884,5.0842,5.0839,5.0854,5.0864,5.0867,5.0861,5.0625,5.0833,5.0831,5.083,5.0829,5.0828,5.0412,5.0466,5.0462,5.0486,5.049,5.0531,5.0551,5.0514,5.0537,5.055,5.0589,5.0625,5.0651,5.0717,5.0704,5.0734,5.0714,5.0794,5.0718,5.0724,5.0709,5.0705,5.0708,5.0809,5.0811,5.0813,5.0815,0,5.0297,5.0273,5.035,5.0343,5.0343,5.04,5.0393,5.0435,5.042,5.0474,5.0485,5.0462,5.0503,5.0477,5.0519,5.0504,5.0592,5.0574,5.0587,5.0581,5.0647,5.0639,5.0874,5.0901,5.0692,5.0694,5.0696,0,5.0112,5.0184,5.0142,5.0189,5.0266,5.0228,5.0306,5.0301,5.0307,5.0349,5.0299,5.034,5.0302,5.0339,5.0318,5.0386,5.0395,5.0386,5.0379,5.0389,5.039,5.0399,5.0388,5.0367,5.0366,5.0365,5.0364,0,4.9932,4.9998,5.0074,5.0085,5.0087,5.0123,5.0126,5.0133,5.0155,5.018,5.0192,5.0225,5.0242,5.0267,5.0239,5.0188,5.0324,5.0248,5.0314,5.0315,5.0344,5.0342,5.0558,5.0363,5.0362,5.0362,5.0362,0,4.9778,4.9804,4.9921,4.9919,4.9939,4.9991,5.0018,5.0058,5.0069,5.0059,5.0079,5.0042,5.0104,5.0029,5.0112,5.0052,5.0071,5.007,5.0074,5.0076,4.9992,5.0112,5.0325,5.0343,5.0079,5.0076,5.0074,0,4.9575,4.9689,4.9657,4.977,4.9818,4.9756,4.9813,4.9826,4.9817,4.9856,4.9846,4.9892,4.9832,4.9843,4.9887,4.9879,4.9956,4.9868,4.992,4.9922,4.9914,5.011,5.0145,5.0281,5.0044,5.0047,5.0049,0,4.9416,4.942,4.9444,4.9453,4.9467,4.9509,4.9576,4.9613,4.964,4.9664,4.9716,4.9783,4.9738,4.9758,4.9734,4.9782,4.9903,4.9728,4.9728,4.9756,5.0029,5.0061,5.0084,4.9875,4.9879,4.9881,5.0025,0,4.9179,4.9235,4.9298,4.9327,4.9357,4.9429,4.9403,4.9437,4.9408,4.9398,4.9478,4.9487,4.9527,4.9549,4.9525,4.9644,4.9619,4.9573,4.9497,4.9628,4.9674,4.9693,4.9429,4.9427,4.9425,4.9423,0,0,4.8989,4.907,4.9036,4.9101,4.9123,4.906,4.9139,4.9154,4.9187,4.9202,4.916,4.9256,4.9266,4.9366,4.9405,4.9424,4.9441,4.9398,4.9567,4.9583,4.9598,4.9648,4.9669,4.942,4.9419,4.9419,4.9418,0,4.8897,4.891,4.899,4.9003,4.9022,4.9009,4.9028,4.9037,4.9034,4.9116,4.9062,4.9108,4.9191,4.9205,4.9223,4.9386,4.9343,4.9401,4.9494,4.9548,4.9567,4.9583,4.9636,4.9656,4.9413,4.9413,4.9414,0,4.8732,4.8738,4.8776,4.8828,4.8841,4.8895,4.8808,4.8872,4.8911,4.8842,4.8924,4.8926,4.8946,4.9046,4.9091,4.9054,4.9254,4.919,4.9201,4.9205,4.9256,4.9279,4.9299,4.9033,4.9032,4.9031,0,0,4.8656,4.871,4.8708,4.8806,4.8818,4.88,4.8828,4.8804,4.8824,4.8832,4.8834,4.8855,4.89,4.8932,4.8975,4.909,4.9089,4.9144,4.9162,4.9176,4.9188,4.9243,4.9265,4.9026,4.9026,4.9026,0,0,4.862,4.862,4.8589,4.8701,4.8721,4.8726,4.8786,4.8748,4.8785,4.8774,4.8737,4.8741,4.8835,4.884,4.878,4.8947,4.8873,4.8887,4.894,4.8962,4.898,4.8975,4.8693,0,0,0,0,0,4.8514,4.8619,4.8591,4.8606,4.8674,4.8741,4.8749,4.8721,4.8667,4.8715,4.871,4.8664,4.8799,4.8745,4.876,4.8827,4.8965,4.8976,4.8986,4.9082,4.9105,4.9125,0,0,0,0,0,0,4.8519,4.8538,4.8588,4.8598,4.8613,4.8737,4.8639,4.8634,4.8661,4.8651,4.8667,4.8665,4.8642,4.8735,4.8749,4.8814,4.8688,4.897,4.8979,4.8987,4.909,4.9109,4.9126,0,0,0,0,0,4.8524,4.8539,4.8656,4.8596,4.8609,4.8596,4.8635,4.863,4.865,4.8645,4.8642,4.8627,4.8645,4.8655,4.8743,4.8808,4.8678,4.8684,4.8976,4.8983,4.8989,4.9099,0,0,0,0,0,0,4.8527,4.8535,4.8658,4.8661,4.8555,4.8588,4.8593,4.8627,4.8642,4.864,4.8603,4.8595,4.8648,4.8655,4.8664,4.8807,4.867,4.8675,4.8679,4.8981,4.8987,4.8992,0,0,0,0,0,0,4.8526,4.8538,4.8659,4.8609,4.8606,4.8582,4.8586,4.8658,4.8643,4.8599,4.8592,4.8599,4.8636,4.8656,4.8662,4.8776,4.8663,4.8669,4.8673,4.8675,4.8986,4.899,0,0,0,0,0,0,4.8531,4.854,4.8608,4.8606,4.8602,4.8632,4.8645,4.8716,4.86,4.8599,4.8589,4.8583,4.8638,4.8643,4.8662,4.8773,4.8775,4.8664,4.8667,4.867,4.8672,0,0,0,0,0,0,0,4.8534,4.8476,4.8641,4.8603,4.86,4.8687,4.8687,4.8688,4.8599,4.8594,4.859,4.8586,4.8633,4.8639,4.8645,4.8771,0,0,4.8663,4.8666,0,0,0,0,0,0,0,0,4.8471,4.8475,4.8641,4.8642,4.8642,4.8687,4.8687,4.8688,4.8598,4.8594,4.8591,4.8587,4.8634,4.8639,4.8644,0,0,0,0,0,0,0,0,0,0,0,0,0,0,0,4.8641,4.8642,0,4.8687,4.8687,4.8688,4.8597,4.8594,4.8591,4.8589,4.8636,4.864,4.8644,0,0,0,0,0,0,0,0,0,0,0,0,0,0,0,0,0,0,0,0,0,0,0,0,0,0,0,0,0,0,0,0,0,0,0,0,0,0,0,0,0,0,0,0,0,0,0,0,0,0,0,0,0,0,0,0,0,0,0,0,0,0,0,0,0,0,0,0,0]}]]]